Regional Weather Roundup
Issued by NWS

Home | Current Version | Previous Version | Text Only | Print | Product List | Glossary On
Versions: 1 2 3 4 5 6 7 8 9 10 11 12 13 14 15 16 17 18 19 20 21 22 23 24 25 26 27 28 29 30 31 32 33 34 35 36 37 38 39 40 41 42 43 44 45 46 47 48 49 50
000
ASUS44 KBMX 290310
RWRAL

ALABAMA REGIONAL WEATHER ROUNDUP
NATIONAL WEATHER SERVICE BIRMINGHAM AL
1000 PM CDT THU AUG 28 2014

NOTE: "FAIR" INDICATES FEW OR NO CLOUDS BELOW 12,000 FEET
WITH NO SIGNIFICANT WEATHER AND/OR OBSTRUCTIONS TO VISIBILITY.

THE REMARK "TC" DENOTES TEMPERATURE IN DEGREES CELSIUS.

ALZ001>011-014-016>018-020-290400-
NORTH ALABAMA

CITY           SKY/WX    TMP DP  RH WIND       PRES   REMARKS
MUSCLE SHOALS  CLEAR     73  67  81 CALM      29.99S
HUNTSVILLE     CLEAR     79  66  64 E5        30.00R
DECATUR        CLEAR     74  66  76 E5        30.00R
HALEYVILLE     FAIR      70  65  84 CALM      30.04R
GADSDEN        CLEAR     72  61  68 CALM      30.01R
$$

ALZ012-013-022-023-030>036-040>044-290400-
WEST CENTRAL ALABAMA

CITY           SKY/WX    TMP DP  RH WIND       PRES   REMARKS
TUSCALOOSA     MOCLDY    75  65  70 CALM      29.98R
$$

ALZ015-024>027-033>036-040>044-290400-
CENTRAL ALABAMA

CITY           SKY/WX    TMP DP  RH WIND       PRES   REMARKS
BIRMINGHAM     PTCLDY    81  58  45 S3        30.03R
MONTGOMERY     MOCLDY    76  66  71 CALM      29.99R
SHELBY CO ARPT MOCLDY    75  64  68 CALM      30.01R
MAXWELL AFB    MOCLDY    76  71  85 CALM      29.99R
GREENVILLE     FAIR      73  68  84 CALM      30.00R
$$

ALZ019-021-028-029-037-038-045>048-290400-
EAST CENTRAL ALABAMA

CITY           SKY/WX    TMP DP  RH WIND       PRES   REMARKS
ANNISTON       CLEAR     71  64  78 CALM      30.03R
ALEXANDER CITY MOCLDY    76  68  77 CALM      30.02S
AUBURN         PTCLDY    73  59  60 N6        30.05S
$$

ALZ051>064-290400-
SOUTHWEST ALABAMA

CITY           SKY/WX    TMP DP  RH WIND       PRES   REMARKS
MOBILE         PTCLDY    74  74 100 CALM      30.00R
BROOKLEY FIELD PTCLDY    76  73  91 S3        30.00R
EVERGREEN      PTCLDY    77  67  71 SW5       30.00R
$$

ALZ049-050-065>069-290400-
SOUTHEAST ALABAMA

CITY           SKY/WX    TMP DP  RH WIND       PRES   REMARKS
DOTHAN         MOCLDY    73  64  73 CALM      30.03R
OZARK          PTCLDY    76  67  75 S5        30.00R
TROY           MOCLDY    74  69  85 CALM      30.01R
EUFAULA        FAIR      69  65  86 CALM      30.00R
$$


USA.gov is the U.S. government's official web portal to all federal, state and local government web resources and services.